カタログに戻る

GARUDA 1

運用中通信GEO
NORAD 26089·PAYLOAD·🇮🇩 Indonesia

打ち上げ Feb 12, 2000 から Baikonur Cosmodrome

Loading…

TLE

最新Source: Space-Track

元期: Sep 14, 2026, 03:36 UTC

1 26089U 00011A   26257.15001708  .00000014  00000-0  00000-0 0  9996
2 26089   9.8657  62.7512 0003996 153.8940 203.2060  0.99918760 42549

AllMySatでGARUDA 1をリアルタイム追跡

Download on the App Store